Flag for Brazil Weather past 2 weeks in Itumbiara, Goiás, Brazil

Now
79 °F

Clear.


Feels Like: 80 °F
Forecast: N/A
Wind: 5 mph from Northeast

Location: Uberlandia Airport

Current Time: Sep 23, 2014 at 8:12:23 PM

Latest Report: Sep 23, 2014 at 7:00 PM


Visibility: 10 mi

Pressure: 30.04 "Hg

Humidity: 48%

Dew point: 57 °F

Location of ItumbiaraLocation

Historic Weather in Itumbiara — Graph

°F

Itumbiara temperature yesterday

Maximum temperature yesterday: 88 °F (at 3:00 PM)
Minimum temperature yesterday: 63 °F (at 4:00 AM)
Average temperature yesterday: 74 °F

Past Weeks' High & Low Weather Summary

 TemperatureHumidityPressure
High91 °F (Sep 19, 3:00 PM)94% (Sep 21, 1:00 AM)30.21 "Hg (Sep 21, 1:00 AM)
Low59 °F (Sep 9, 6:00 AM)14% (Sep 11, 4:00 PM)29.95 "Hg (Sep 19, 3:00 PM)
Average75 °F43%30.08 "Hg
* Reported Sep 8 7:00 PM — Sep 23 7:00 PM, Itumbiara, Weather by CustomWeather, © 2014

Note: Actual official high and low records may vary slightly from our data, if they occured in-between our weather recording intervals... More about our weather records

Advertising

Itumbiara weather history for previous 24 hours

 ConditionsComfort  
Time TempWeatherWind HumidityBarometerVisibility
7:00 PM
Sep 23
79 °FClear.5 mph48%30.04 "Hg10 mi
6:00 PM81 °FPassing clouds.8 mph45%30.04 "HgN/A
5:00 PM84 °FPassing clouds.13 mph37%30.04 "HgN/A
4:00 PM86 °FPassing clouds.10 mph35%30.04 "HgN/A
3:00 PM86 °FPassing clouds.9 mph35%30.04 "HgN/A
2:00 PM86 °FPassing clouds.14 mph38%30.07 "HgN/A
1:00 PM84 °FSunny.14 mph40%30.07 "Hg10 mi
12:00 PM82 °FSunny.18 mph45%30.09 "Hg10 mi
11:00 AM81 °FSunny.21 mph45%30.12 "Hg10 mi
10:00 AM77 °FSunny.22 mph51%30.12 "Hg10 mi
9:00 AM73 °FSunny.12 mph57%30.15 "Hg10 mi
8:00 AM68 °FSunny.12 mph64%30.12 "Hg10 mi
7:00 AM64 °FSunny.17 mph64%30.09 "Hg10 mi
6:00 AM64 °FClear.13 mph60%30.09 "Hg10 mi
5:00 AM64 °FClear.13 mph56%30.07 "Hg10 mi
4:00 AM66 °FClear.13 mph49%30.07 "Hg10 mi
3:00 AM68 °FClear.12 mph46%30.07 "Hg10 mi
2:00 AM70 °FClear.9 mph43%30.07 "Hg10 mi
1:00 AM70 °FClear.12 mph46%30.07 "Hg10 mi
12:00 AM72 °FClear.12 mph44%30.07 "Hg10 mi
11:00 PM
Sep 22
73 °FClear.12 mph38%30.07 "Hg10 mi
10:00 PM73 °FClear.12 mph38%30.07 "Hg10 mi
9:00 PM73 °FClear.9 mph41%30.07 "Hg10 mi
8:00 PM75 °FClear.9 mph41%30.04 "Hg10 mi
Weather by CustomWeather, © 2014

See weather overviewHow to use our weather pages